Weather reports worldwide

Advertisment
Stonyhurst, United Kingdom (99060): temperature & dewpoint: 15.09.2017 02:00:00 - 21.09.2017 02:00:00 (BST)Stonyhurst, United Kingdom (99060): precipitation: 15.09.2017 02:00:00 - 21.09.2017 02:00:00 (BST)
Date & Time tt [°C] td [°C] rr [mm]
21.09.2017 02:00:00 - - 0,0
21.09.2017 01:00:00 14,1 12,7 0,0
21.09.2017 00:00:00 14,2 12,8 0,0
20.09.2017 23:00:00 14,3 12,9 0,0
20.09.2017 22:00:00 14,5 13,2 0,2
20.09.2017 21:00:00 14,7 13,0 0,4
20.09.2017 20:00:00 14,9 13,1 0,0
20.09.2017 19:00:00 14,6 13,5 0,6
20.09.2017 18:00:00 14,5 13,5 0,2
20.09.2017 17:00:00 14,6 13,5 1,4
20.09.2017 16:00:00 17,0 12,8 0,0
20.09.2017 15:00:00 16,7 12,6 0,0
20.09.2017 14:00:00 16,7 12,2 0,0
20.09.2017 13:00:00 16,6 11,5 0,0
20.09.2017 12:00:00 16,3 12,4 0,0
20.09.2017 11:00:00 14,7 12,4 0,0
20.09.2017 10:00:00 13,0 11,1 0,0
20.09.2017 09:00:00 12,5 10,8 0,0
20.09.2017 08:00:00 11,2 9,9 0,0
20.09.2017 07:00:00 10,9 9,8 0,0
20.09.2017 06:00:00 10,6 9,3 0,0
20.09.2017 05:00:00 10,3 9,1 0,0
20.09.2017 04:00:00 10,2 9,0 0,0
20.09.2017 03:00:00 9,8 8,9 0,0
20.09.2017 02:00:00 9,5 8,4 0,0
20.09.2017 01:00:00 9,8 8,5 0,0
20.09.2017 00:00:00 9,8 8,3 0,0
19.09.2017 23:00:00 10,1 8,4 0,0
19.09.2017 22:00:00 9,9 8,4 0,0
19.09.2017 21:00:00 9,7 8,0 0,0
19.09.2017 20:00:00 10,6 8,7 0,0
19.09.2017 19:00:00 12,8 9,3 0,0
19.09.2017 18:00:00 14,8 9,1 0,0
19.09.2017 17:00:00 15,0 8,6 0,0
19.09.2017 16:00:00 14,8 8,7 0,0
19.09.2017 15:00:00 14,9 9,2 0,0
19.09.2017 14:00:00 14,6 8,7 0,0
19.09.2017 13:00:00 14,2 10,0 0,0
19.09.2017 12:00:00 12,9 8,9 0,0
19.09.2017 11:00:00 10,6 9,0 0,0
19.09.2017 10:00:00 8,1 7,5 0,0
19.09.2017 09:00:00 5,1 5,0 0,0
19.09.2017 08:00:00 3,1 3,0 0,0
19.09.2017 07:00:00 2,7 2,5 0,0
19.09.2017 06:00:00 3,8 3,6 0,2
19.09.2017 05:00:00 4,3 4,1 0,0
19.09.2017 04:00:00 4,5 4,3 0,0
19.09.2017 03:00:00 5,4 5,2 0,0
19.09.2017 02:00:00 4,6 4,3 0,0
19.09.2017 01:00:00 6,2 5,9 0,0
19.09.2017 00:00:00 7,0 6,6 0,0
18.09.2017 23:00:00 7,9 7,5 0,0
18.09.2017 22:00:00 9,0 8,5 0,0
18.09.2017 21:00:00 9,3 8,8 0,2
18.09.2017 20:00:00 9,4 8,8 0,6
18.09.2017 19:00:00 9,5 8,8 1,6
18.09.2017 18:00:00 9,6 8,4 3,2
18.09.2017 17:00:00 12,6 8,7 0,0
18.09.2017 16:00:00 13,2 8,7 0,0
18.09.2017 15:00:00 12,6 9,1 0,2
18.09.2017 14:00:00 11,9 9,4 0,0
18.09.2017 13:00:00 12,0 9,0 0,6
18.09.2017 12:00:00 12,2 7,2 0,2
18.09.2017 11:00:00 12,6 8,6 0,0
18.09.2017 10:00:00 11,4 7,8 0,0
18.09.2017 09:00:00 10,3 8,2 0,0
18.09.2017 08:00:00 9,0 7,8 0,0
18.09.2017 07:00:00 10,7 7,2 0,0
18.09.2017 06:00:00 8,8 8,0 0,0
18.09.2017 05:00:00 8,8 8,0 0,0
18.09.2017 04:00:00 9,0 7,8 0,0
18.09.2017 03:00:00 8,8 7,3 0,0
18.09.2017 02:00:00 9,2 8,1 0,0
18.09.2017 01:00:00 10,0 8,7 0,0
18.09.2017 00:00:00 10,1 9,3 0,0
17.09.2017 23:00:00 10,8 9,2 0,0
17.09.2017 22:00:00 11,7 9,3 0,0
17.09.2017 21:00:00 12,4 8,7 0,0
17.09.2017 20:00:00 12,6 8,4 0,0
17.09.2017 19:00:00 13,4 8,8 0,0
17.09.2017 18:00:00 16,0 8,7 0,0
17.09.2017 17:00:00 17,0 8,5 0,0
17.09.2017 16:00:00 16,4 7,9 0,0
17.09.2017 15:00:00 15,7 9,0 0,0
17.09.2017 14:00:00 16,0 8,5 0,0
17.09.2017 13:00:00 15,6 8,5 0,0
17.09.2017 12:00:00 15,1 9,1 0,0
17.09.2017 11:00:00 14,0 9,1 0,0
17.09.2017 10:00:00 12,2 9,5 0,0
17.09.2017 09:00:00 9,7 8,3 0,0
17.09.2017 08:00:00 10,1 7,8 0,0
17.09.2017 07:00:00 9,0 7,6 0,0
17.09.2017 06:00:00 9,2 7,6 0,0
17.09.2017 05:00:00 8,4 7,0 0,0
17.09.2017 04:00:00 7,4 6,7 0,0
17.09.2017 03:00:00 7,1 5,7 0,0
17.09.2017 02:00:00 8,1 7,3 0,0
17.09.2017 01:00:00 7,7 6,7 0,0
17.09.2017 00:00:00 7,4 6,2 0,0
16.09.2017 23:00:00 8,1 6,6 0,0
16.09.2017 22:00:00 8,4 6,7 0,0
16.09.2017 21:00:00 8,8 6,7 0,0
16.09.2017 20:00:00 10,1 7,5 0,0
16.09.2017 19:00:00 10,8 8,0 0,0
16.09.2017 18:00:00 11,4 8,7 0,0
16.09.2017 17:00:00 11,5 9,0 0,8
16.09.2017 16:00:00 13,5 8,9 0,0
16.09.2017 15:00:00 13,5 6,9 0,0
16.09.2017 14:00:00 15,3 6,4 0,0
16.09.2017 13:00:00 14,0 6,6 0,0
16.09.2017 12:00:00 13,2 7,4 0,0
16.09.2017 11:00:00 11,7 6,6 0,0
16.09.2017 10:00:00 11,0 7,1 0,0
16.09.2017 09:00:00 9,8 6,9 0,0
16.09.2017 08:00:00 9,0 7,1 0,0
16.09.2017 07:00:00 8,9 6,3 0,0
16.09.2017 06:00:00 8,0 6,3 0,0
16.09.2017 05:00:00 7,8 6,3 0,0
16.09.2017 04:00:00 8,2 6,8 0,0
16.09.2017 03:00:00 9,0 7,3 0,0
16.09.2017 02:00:00 10,6 7,5 0,0
16.09.2017 01:00:00 11,1 7,8 0,0
16.09.2017 00:00:00 11,2 7,5 0,0
15.09.2017 23:00:00 10,9 7,5 0,0
15.09.2017 22:00:00 10,3 7,7 0,0
15.09.2017 21:00:00 11,3 8,8 0,0
15.09.2017 20:00:00 10,2 7,5 0,0
15.09.2017 19:00:00 11,6 7,3 0,0
15.09.2017 18:00:00 13,2 6,6 0,0
15.09.2017 17:00:00 13,9 7,3 0,0
15.09.2017 16:00:00 14,5 7,1 0,0
15.09.2017 15:00:00 14,7 7,4 0,0
15.09.2017 14:00:00 14,0 7,0 0,0
15.09.2017 13:00:00 13,4 7,3 0,0
15.09.2017 12:00:00 13,4 7,1 0,0
15.09.2017 11:00:00 12,3 7,3 0,0
15.09.2017 10:00:00 13,3 9,1 0,0
15.09.2017 09:00:00 10,9 8,4 0,0
15.09.2017 08:00:00 9,3 8,5 0,0
15.09.2017 07:00:00 8,5 8,1 0,2
15.09.2017 06:00:00 8,4 7,9 0,2
15.09.2017 05:00:00 8,2 7,6 0,8
15.09.2017 04:00:00 7,8 7,2 0,0
15.09.2017 03:00:00 7,3 6,6 0,0
15.09.2017 02:00:00 7,7 6,6 0,0

tt = temperature
td = dewpoint
rr = precipitation

Next stations